Hagerstown, MD

12:56 PM EDT on October 14, 2019 (GMT -0400)
Hagerstown Regional-Henson

Weather History for KHGR - August, 2019

Change the Weather History Date:

Monday, August 12, 2019

  Actual Average Record
Temperature  
Mean Temperature 75 °F 74 °F  
Max Temperature 90 °F 84 °F 95 °F (2005)
Min Temperature 59 °F 64 °F 55 °F (2006)
Degree Days  
Heating Degree Days 0 0  
Month to date heating degree days 0 0  
Since 1 June heating degree days 5 18  
Since 1 July heating degree days 0 0  
Cooling Degree Days 10 9  
Month to date cooling degree days 143 113  
Year to date cooling degree days 1010 719  
Since 1 June cooling degree days 828 643  
Growing Degree Days 26 (Base 50)    
Moisture  
Dew Point 57 °F    
Average Humidity 54    
Maximum Humidity 72    
Minimum Humidity 36    
Precipitation  
Precipitation 0.00 in 0.10 in 1.04 in (2010)
Month to date precipitation 0.77 1.18  
Year to date precipitation 26.74 24.67  
Sea Level Pressure  
Sea Level Pressure 29.98 in    
Wind  
Wind Speed 6 mph (SE)    
Max Wind Speed 13 mph    
Max Gust Speed 18 mph    
Visibility 10 miles    
Events      
T = Trace of Precipitation, MM = Missing Value Source: NWS Daily Summary

Daily Weather History Graph

Daily Weather History Graph

Search for Another Location

Airport or City:

Astronomy

Aug. 12, 2019 Rise Set
Actual Time 6:20 AM EDT 8:11 PM EDT
Civil Twilight 5:50 AM EDT 8:40 PM EDT
Nautical Twilight 5:15 AM EDT 9:15 PM EDT
Astronomical Twilight 4:37 AM EDT 9:53 PM EDT
Moon 6:39 PM EDT (8/12) 3:27 AM EDT (8/12)
Length of Visible Light 14h 49m
Length of Day
13h 51m
Waxing Gibbous, 93% of the Moon is Illuminated
Aug 12
Waxing Gibbous
Aug 15
Full
Aug 23
Last Quarter
Aug 30
New
Sep 5
First Quarter

Hourly Weather History & Observations

Time (EDT) Temp. Heat Index Dew Point Humidity Pressure Visibility Wind Dir Wind Speed Gust Speed Precip Events Conditions
12:53 AM 70.0 °F - 51.1 °F 51% 30.06 in 10.0 mi Calm Calm - N/A   Clear
1:53 AM 68.0 °F - 50.0 °F 52% 30.06 in 10.0 mi East 3.5 mph - N/A   Clear
2:53 AM 64.9 °F - 51.1 °F 61% 30.05 in 10.0 mi East 5.8 mph - N/A   Clear
3:53 AM 63.0 °F - 52.0 °F 67% 30.05 in 10.0 mi ENE 4.6 mph - N/A   Clear
4:53 AM 63.0 °F - 52.0 °F 67% 30.04 in 10.0 mi ENE 6.9 mph - N/A   Clear
5:53 AM 63.0 °F - 51.1 °F 65% 30.04 in 10.0 mi Calm Calm - N/A   Clear
6:53 AM 62.1 °F - 53.1 °F 72% 30.05 in 4.0 mi NNW 3.5 mph - N/A   Haze
7:53 AM 66.9 °F - 54.0 °F 63% 30.04 in 10.0 mi NNW 3.5 mph - N/A   Clear
8:53 AM 73.0 °F - 55.9 °F 55% 30.05 in 10.0 mi Calm Calm - N/A   Clear
9:53 AM 75.0 °F - 57.9 °F 55% 30.04 in 10.0 mi Variable 3.5 mph - N/A   Clear
10:53 AM 79.0 °F - 57.0 °F 47% 30.03 in 10.0 mi Variable 3.5 mph - N/A   Clear
11:53 AM 82.0 °F 81.7 °F 57.0 °F 42% 30.02 in 10.0 mi South 8.1 mph - N/A   Clear
12:53 PM 82.9 °F 82.8 °F 59.0 °F 44% 30.00 in 10.0 mi WSW 5.8 mph - N/A   Clear
1:53 PM 84.9 °F 84.2 °F 57.9 °F 40% 29.99 in 10.0 mi South 10.4 mph - N/A   Clear
2:53 PM 87.1 °F 86.5 °F 59.0 °F 39% 29.96 in 10.0 mi Variable 6.9 mph 18.4 mph N/A   Scattered Clouds
3:53 PM 88.0 °F 86.9 °F 57.9 °F 36% 29.94 in 10.0 mi SSW 10.4 mph - N/A   Partly Cloudy
4:53 PM 89.1 °F 88.8 °F 60.1 °F 38% 29.91 in 10.0 mi SSE 9.2 mph - N/A   Clear
5:53 PM 88.0 °F 87.9 °F 61.0 °F 40% 29.90 in 10.0 mi SSE 8.1 mph - N/A   Clear
6:53 PM 87.1 °F 87.0 °F 61.0 °F 41% 29.89 in 10.0 mi SSE 6.9 mph - N/A   Clear
7:53 PM 84.9 °F 85.4 °F 62.1 °F 46% 29.89 in 10.0 mi SE 4.6 mph - N/A   Clear
8:53 PM 82.9 °F 84.0 °F 63.0 °F 51% 29.89 in 10.0 mi ESE 5.8 mph - N/A   Clear
9:53 PM 82.0 °F 83.4 °F 64.0 °F 54% 29.88 in 10.0 mi SE 5.8 mph - N/A   Clear
10:53 PM 81.0 °F 82.7 °F 64.9 °F 58% 29.88 in 10.0 mi South 5.8 mph - N/A   Clear
11:53 PM 81.0 °F 83.0 °F 66.0 °F 60% 29.88 in 10.0 mi South 6.9 mph - N/A   Clear